Location: Bismarck
(46.7731°N, 100.8200°W)
Time: 21:37:10
(UTC-05:00)

Landsat 7 - Visible Passes

Search period start: 02 August 2015 00:00
Search period end: 12 August 2015 00:00
Orbit: 702 x 703 km, 98.2° (Epoch: 02 August)

Date Brightness Start Highest point End Pass type
(mag) Time Alt. Az. Time Alt. Az. Time Alt. Az.
02 Aug 5.5 00:18:32 19° SW 00:20:41 25° W 00:24:36 10° NW visible
02 Aug 5.8 21:45:41 10° E 21:48:14 15° ENE 21:50:57 10° NNE visible
02 Aug 3.8 23:22:59 29° S 23:25:25 81° WSW 23:30:13 10° NNW visible
03 Aug 4.8 22:27:27 16° ESE 22:30:37 32° ENE 22:34:52 10° N visible
04 Aug 5.1 00:06:20 23° SW 00:08:22 32° W 00:12:38 10° NNW visible
04 Aug 3.8 23:10:47 29° SSE 23:13:12 78° ENE 23:18:00 10° N visible
05 Aug 6.2 00:49:41 11° WSW 00:51:39 13° W 00:53:49 10° WNW visible
05 Aug 5.1 22:15:15 13° ESE 22:18:29 26° ENE 22:22:27 10° N visible
05 Aug 4.7 23:54:08 28° SSW 23:56:05 42° W 00:00:36 10° NNW visible
06 Aug 3.9 22:58:35 27° SE 23:01:02 60° ENE 23:05:45 10° N visible
07 Aug 5.9 00:37:29 15° WSW 00:39:16 17° W 00:42:20 10° NW visible
07 Aug 5.4 22:03:03 10° ESE 22:06:23 21° ENE 22:09:57 10° NNE visible
07 Aug 4.3 23:41:56 33° SSW 23:43:49 55° W 23:48:30 10° NNW visible
08 Aug 4.3 22:46:24 25° SE 22:48:52 47° ENE 22:53:27 10° N visible
09 Aug 5.6 00:25:18 19° WSW 00:26:54 22° W 00:30:34 10° NW visible
09 Aug 5.6 21:51:25 10° E 21:54:18 17° ENE 21:57:21 10° NNE visible
09 Aug 3.9 23:29:45 37° S 23:31:34 72° WSW 23:36:21 10° NNW visible
10 Aug 4.6 22:34:13 21° ESE 22:36:43 36° ENE 22:41:06 10° N visible
11 Aug 5.3 00:13:06 24° SW 00:14:34 29° W 00:18:40 10° NW visible
11 Aug 5.9 21:40:07 10° E 21:42:14 13° ENE 21:44:34 10° NNE visible
11 Aug 3.7 23:17:34 39° SSE 23:19:21 88° E 23:24:10 10° NNW visible
